SWR8335 LGKL-LSZH

Flight info

Callsign SWR8335
Flight time N/A
Altitude 32000
Route ANEPI DCT TRL UN1 ARA UL611 GARTA/N0450F360 DCT TUMBO DCT RETRA DCT ELTIB DCT PENEP DCT ERKIR DCT KPT L856 NEGRA
Aircraft A320/M-SDE2E3FGIRWXY/L

Departure

Time 2026-05-05 13:30
Airport Kalamata Airport (LGKL)

Arrival

Time N/A
Airport Zürich Airport (LSZH)
Time Latitude Longitude Altitude Speed Heading
2026-05-05 13:20 37.05531 22.03346 20 ft 0 kts 120°
2026-05-05 13:24 37.05525 22.03345 20 ft 2 kts 173°
2026-05-05 13:25 37.05494 22.03317 21 ft 9 kts 234°
2026-05-05 13:25 37.05489 22.03224 20 ft 12 kts 291°
2026-05-05 13:25 37.05519 22.03135 22 ft 10 kts 284°
2026-05-05 13:25 37.05540 22.03034 21 ft 15 kts 284°
2026-05-05 13:26 37.05627 22.02950 25 ft 19 kts 348°
2026-05-05 13:26 37.05775 22.02917 27 ft 24 kts 349°
2026-05-05 13:26 37.05958 22.02872 31 ft 28 kts 349°
2026-05-05 13:26 37.06152 22.02826 29 ft 30 kts 349°
2026-05-05 13:27 37.06352 22.02780 30 ft 29 kts 349°
2026-05-05 13:27 37.06557 22.02732 28 ft 30 kts 349°
2026-05-05 13:27 37.06752 22.02686 30 ft 29 kts 350°
2026-05-05 13:27 37.06950 22.02642 31 ft 29 kts 349°
2026-05-05 13:28 37.07150 22.02589 30 ft 30 kts 350°
2026-05-05 13:28 37.07360 22.02546 33 ft 31 kts 351°
2026-05-05 13:28 37.07575 22.02495 31 ft 32 kts 349°
2026-05-05 13:28 37.07776 22.02448 35 ft 28 kts 350°
2026-05-05 13:29 37.07898 22.02398 37 ft 11 kts 303°
2026-05-05 13:29 37.07903 22.02315 37 ft 8 kts 265°
2026-05-05 13:29 37.07866 22.02301 35 ft 4 kts 170°
2026-05-05 13:29 37.07863 22.02301 34 ft 3 kts 170°
2026-05-05 13:30 37.07683 22.02342 31 ft 63 kts 169°
2026-05-05 13:30 37.07022 22.02497 33 ft 127 kts 169°
2026-05-05 13:30 37.05963 22.02755 126 ft 168 kts 171°
2026-05-05 13:30 37.04834 22.03025 827 ft 165 kts 171°
2026-05-05 13:31 37.03711 22.03287 1581 ft 164 kts 168°
2026-05-05 13:31 37.02637 22.03783 2254 ft 172 kts 139°
2026-05-05 13:31 37.02096 22.05080 2855 ft 172 kts 90°
2026-05-05 13:31 37.02083 22.06592 3334 ft 180 kts 97°
2026-05-05 13:32 37.01607 22.08054 3677 ft 193 kts 130°
2026-05-05 13:32 37.00482 22.09111 3938 ft 212 kts 158°
2026-05-05 13:32 36.99036 22.09764 4256 ft 230 kts 164°
2026-05-05 13:32 36.97418 22.10363 4593 ft 254 kts 165°
2026-05-05 13:33 36.95649 22.10994 5108 ft 272 kts 165°
2026-05-05 13:33 36.93808 22.11634 5888 ft 276 kts 165°
2026-05-05 13:33 36.91937 22.12234 6673 ft 280 kts 167°
2026-05-05 13:33 36.90015 22.12713 7430 ft 284 kts 169°
2026-05-05 13:34 36.88054 22.13149 8205 ft 288 kts 174°
2026-05-05 13:34 36.86064 22.12879 9008 ft 291 kts 201°
2026-05-05 13:34 36.84360 22.11549 9828 ft 291 kts 228°
2026-05-05 13:34 36.83247 22.09455 10495 ft 295 kts 250°
2026-05-05 13:35 36.82869 22.06877 10718 ft 313 kts 275°
2026-05-05 13:35 36.83457 22.04206 10915 ft 331 kts 301°
2026-05-05 13:35 36.85011 22.02027 11110 ft 348 kts 327°
2026-05-05 13:35 36.87276 22.00952 11630 ft 355 kts 353°
2026-05-05 13:36 36.89741 22.01238 12295 ft 361 kts 13°
2026-05-05 13:36 36.92166 22.02076 13029 ft 363 kts 14°
2026-05-05 13:36 36.94597 22.02947 13763 ft 364 kts 14°
2026-05-05 13:36 36.97042 22.03834 14401 ft 367 kts 14°
2026-05-05 13:37 36.99505 22.04727 14998 ft 370 kts 13°
2026-05-05 13:37 37.01990 22.05624 15592 ft 373 kts 13°
2026-05-05 13:37 37.04495 22.06525 16179 ft 377 kts 13°
2026-05-05 13:37 37.07027 22.07429 16772 ft 380 kts 13°
2026-05-05 13:38 37.09583 22.08339 17346 ft 384 kts 13°
2026-05-05 13:38 37.12163 22.09257 17939 ft 387 kts 12°
2026-05-05 13:38 37.14764 22.10183 18506 ft 390 kts 12°
2026-05-05 13:38 37.17385 22.11120 19026 ft 393 kts 12°
2026-05-05 13:39 37.20019 22.12066 19562 ft 394 kts 12°
2026-05-05 13:39 37.22668 22.13020 20085 ft 396 kts 12°
2026-05-05 13:39 37.25321 22.13975 20586 ft 398 kts 12°
2026-05-05 13:39 37.27989 22.14935 21072 ft 400 kts 12°
2026-05-05 13:40 37.30669 22.15900 21559 ft 402 kts 12°
2026-05-05 13:40 37.33360 22.16870 22033 ft 403 kts 12°
2026-05-05 13:40 37.35191 22.17464 22337 ft 402 kts
2026-05-05 13:40 37.37964 22.17770 22778 ft 399 kts 355°
2026-05-05 13:41 37.40704 22.17345 23204 ft 397 kts 345°
2026-05-05 13:41 37.43311 22.16216 23635 ft 397 kts 334°
2026-05-05 13:41 37.45682 22.14431 23984 ft 399 kts 323°
2026-05-05 13:41 37.47861 22.12246 24338 ft 400 kts 322°
2026-05-05 13:42 37.50036 22.10054 24673 ft 402 kts 322°
2026-05-05 13:42 37.52222 22.07852 25003 ft 403 kts 322°
2026-05-05 13:42 37.54415 22.05644 25332 ft 404 kts 322°
2026-05-05 13:42 37.56615 22.03428 25662 ft 405 kts 322°
2026-05-05 13:43 37.58821 22.01203 25981 ft 407 kts 322°
2026-05-05 13:43 37.61032 21.98966 26283 ft 408 kts 322°
2026-05-05 13:43 37.63243 21.96726 26606 ft 409 kts 322°
2026-05-05 13:43 37.65471 21.94470 26903 ft 410 kts 322°
2026-05-05 13:44 37.67695 21.92217 27186 ft 411 kts 322°
2026-05-05 13:44 37.69930 21.89951 27463 ft 413 kts 321°
2026-05-05 13:44 37.72169 21.87677 27735 ft 414 kts 321°
2026-05-05 13:44 37.74413 21.85396 27990 ft 414 kts 321°
2026-05-05 13:45 37.76654 21.83119 28339 ft 412 kts 321°
2026-05-05 13:45 37.78883 21.80855 28709 ft 411 kts 321°
2026-05-05 13:45 37.81105 21.78598 29094 ft 409 kts 321°
2026-05-05 13:45 37.83322 21.76345 29472 ft 407 kts 321°
2026-05-05 13:46 37.85522 21.74104 29847 ft 405 kts 322°
2026-05-05 13:46 37.87735 21.71848 30216 ft 403 kts 322°
2026-05-05 13:46 37.89885 21.69649 30524 ft 402 kts 321°
2026-05-05 13:46 37.92054 21.67429 30839 ft 401 kts 321°
2026-05-05 13:47 37.94249 21.65182 31135 ft 400 kts 321°
2026-05-05 13:47 37.96411 21.62965 31425 ft 399 kts 321°
2026-05-05 13:47 37.98569 21.60752 31707 ft 399 kts 321°
2026-05-05 13:47 38.00725 21.58545 32005 ft 398 kts 321°
2026-05-05 13:48 38.02880 21.56339 32287 ft 397 kts 321°
2026-05-05 13:48 38.05024 21.54139 32552 ft 397 kts 321°
2026-05-05 13:48 38.07170 21.51931 32817 ft 397 kts 320°
2026-05-05 13:48 38.09313 21.49726 33116 ft 396 kts 320°
2026-05-05 13:49 38.11453 21.47521 33403 ft 396 kts 320°
2026-05-05 13:49 38.13592 21.45320 33686 ft 395 kts 320°
2026-05-05 13:49 38.15802 21.43242 33968 ft 396 kts 327°
2026-05-05 13:49 38.18249 21.41646 34223 ft 397 kts 334°
2026-05-05 13:50 38.20788 21.40259 34469 ft 397 kts 334°
2026-05-05 13:50 38.23323 21.38865 34707 ft 397 kts 334°
2026-05-05 13:50 38.25853 21.37466 34933 ft 396 kts 334°
2026-05-05 13:50 38.28381 21.36064 35157 ft 396 kts 333°
2026-05-05 13:51 38.30907 21.34662 35363 ft 396 kts 333°
2026-05-05 13:51 38.33433 21.33261 35569 ft 396 kts 333°
2026-05-05 13:51 38.35957 21.31861 35779 ft 396 kts 333°
2026-05-05 13:51 38.38481 21.30463 35964 ft 395 kts 333°
2026-05-05 13:52 38.41005 21.29062 36099 ft 396 kts 333°
2026-05-05 13:52 38.43543 21.27651 36125 ft 399 kts 333°
2026-05-05 13:52 38.48641 21.24810 36119 ft 400 kts 333°
2026-05-05 13:53 38.53736 21.21971 36120 ft 400 kts 333°
2026-05-05 13:53 38.58832 21.19131 36117 ft 399 kts 333°
2026-05-05 13:54 38.63919 21.16288 36122 ft 399 kts 333°
2026-05-05 13:54 38.69002 21.13441 36130 ft 399 kts 333°
2026-05-05 13:55 38.74082 21.10593 36137 ft 398 kts 333°
2026-05-05 13:55 38.79182 21.07728 36141 ft 398 kts 333°
2026-05-05 13:56 38.84246 21.04880 36154 ft 397 kts 333°
2026-05-05 13:56 38.89297 21.02032 36145 ft 396 kts 333°
2026-05-05 13:57 38.94338 20.99189 36152 ft 395 kts 333°
2026-05-05 13:57 38.99376 20.96373 36152 ft 395 kts 335°
2026-05-05 13:58 39.04552 20.93936 36153 ft 397 kts 338°
2026-05-05 13:58 39.09787 20.91689 36150 ft 396 kts 338°
2026-05-05 13:59 39.17596 20.88230 36143 ft 395 kts 337°
2026-05-05 14:00 39.24522 20.85076 36135 ft 395 kts 337°
2026-05-05 14:00 39.30576 20.82312 36129 ft 395 kts 337°
2026-05-05 14:01 39.35761 20.79953 36132 ft 395 kts 336°
2026-05-05 14:01 39.40943 20.77592 36128 ft 395 kts 336°
2026-05-05 14:02 39.46128 20.75226 36123 ft 395 kts 336°
2026-05-05 14:02 39.51315 20.72857 36125 ft 395 kts 336°
2026-05-05 14:03 39.56504 20.70486 36125 ft 395 kts 336°
2026-05-05 14:03 39.61686 20.68108 36125 ft 395 kts 336°
2026-05-05 14:04 39.66866 20.65724 36123 ft 395 kts 336°
2026-05-05 14:04 39.72045 20.63333 36116 ft 395 kts 336°
2026-05-05 14:05 39.77253 20.60936 36119 ft 395 kts 336°
2026-05-05 14:05 39.82401 20.58564 36124 ft 395 kts 336°
2026-05-05 14:06 39.87610 20.56157 36117 ft 395 kts 336°
2026-05-05 14:06 39.92789 20.53763 36111 ft 395 kts 335°
2026-05-05 14:07 39.97979 20.51355 36106 ft 396 kts 335°
2026-05-05 14:07 40.03161 20.48939 36107 ft 396 kts 335°
2026-05-05 14:08 40.08347 20.46497 36099 ft 396 kts 334°
2026-05-05 14:08 40.13491 20.43909 36093 ft 396 kts 334°
2026-05-05 14:09 40.18607 20.41252 36092 ft 395 kts 334°
2026-05-05 14:09 40.23724 20.38614 36096 ft 395 kts 334°
2026-05-05 14:10 40.28879 20.35982 36098 ft 395 kts 334°
2026-05-05 14:10 40.33999 20.33365 36098 ft 395 kts 334°
2026-05-05 14:11 40.39121 20.30742 36096 ft 395 kts 334°
2026-05-05 14:11 40.44232 20.28109 36094 ft 395 kts 334°
2026-05-05 14:12 40.49341 20.25481 36086 ft 395 kts 334°
2026-05-05 14:12 40.54460 20.22835 36088 ft 395 kts 334°
2026-05-05 14:13 40.58713 20.20636 36086 ft 396 kts 334°
2026-05-05 14:13 40.63839 20.17990 36084 ft 395 kts 334°
2026-05-05 14:14 40.68958 20.15333 36088 ft 396 kts 333°
2026-05-05 14:14 40.74108 20.12665 36089 ft 398 kts 334°
2026-05-05 14:15 40.79295 20.09983 36087 ft 398 kts 334°
2026-05-05 14:15 40.84442 20.07298 36089 ft 399 kts 333°
2026-05-05 14:16 40.89603 20.04599 36088 ft 399 kts 333°
2026-05-05 14:16 40.94778 20.01892 36088 ft 400 kts 333°
2026-05-05 14:17 40.99949 19.99185 36088 ft 400 kts 333°
2026-05-05 14:17 41.05134 19.96466 36093 ft 401 kts 333°
2026-05-05 14:18 41.10320 19.93747 36096 ft 401 kts 333°
2026-05-05 14:18 41.15499 19.91021 36096 ft 401 kts 333°
2026-05-05 14:19 41.20687 19.88293 36099 ft 401 kts 333°
2026-05-05 14:19 41.25877 19.85553 36100 ft 402 kts 333°
2026-05-05 14:20 41.31071 19.82806 36100 ft 402 kts 333°
2026-05-05 14:20 41.36304 19.80035 36091 ft 402 kts 333°
2026-05-05 14:21 41.41512 19.77277 36096 ft 403 kts 333°
2026-05-05 14:21 41.46725 19.74509 36106 ft 404 kts 333°
2026-05-05 14:22 41.51938 19.71736 36097 ft 404 kts 333°
2026-05-05 14:22 41.57158 19.68948 36102 ft 404 kts 333°
2026-05-05 14:23 41.62390 19.66160 36095 ft 405 kts 333°
2026-05-05 14:23 41.67624 19.63359 36097 ft 406 kts 333°
2026-05-05 14:24 41.72867 19.60544 36093 ft 406 kts 333°
2026-05-05 14:24 41.78119 19.57716 36098 ft 407 kts 333°
2026-05-05 14:25 41.83386 19.54889 36089 ft 408 kts 333°
2026-05-05 14:25 41.88698 19.52024 36087 ft 409 kts 333°
2026-05-05 14:26 41.93986 19.49165 36093 ft 410 kts 333°
2026-05-05 14:26 41.99290 19.46305 36089 ft 411 kts 333°
2026-05-05 14:27 42.04596 19.43430 36083 ft 412 kts 333°
2026-05-05 14:27 42.09916 19.40544 36084 ft 412 kts 333°
2026-05-05 14:28 42.15246 19.37640 36088 ft 413 kts 333°
2026-05-05 14:28 42.20576 19.34719 36089 ft 413 kts 331°
2026-05-05 14:29 42.25340 19.30611 36093 ft 405 kts 316°
2026-05-05 14:29 42.29610 19.25629 36091 ft 406 kts 316°
2026-05-05 14:30 42.33904 19.20647 36092 ft 407 kts 316°
2026-05-05 14:30 42.38234 19.15604 36093 ft 408 kts 316°
2026-05-05 14:31 42.42543 19.10582 36089 ft 409 kts 316°
2026-05-05 14:31 42.46863 19.05544 36089 ft 410 kts 316°
2026-05-05 14:32 42.51179 19.00486 36089 ft 411 kts 316°
2026-05-05 14:32 42.55502 18.95405 36091 ft 412 kts 316°
2026-05-05 14:33 42.59834 18.90309 36090 ft 412 kts 316°
2026-05-05 14:33 42.64169 18.85202 36083 ft 413 kts 316°
2026-05-05 14:34 42.68514 18.80071 36090 ft 414 kts 316°
2026-05-05 14:34 42.72857 18.74939 36088 ft 414 kts 316°
2026-05-05 14:35 42.77237 18.69757 36084 ft 415 kts 316°
2026-05-05 14:35 42.81592 18.64589 36085 ft 415 kts 316°
2026-05-05 14:36 42.85945 18.59407 36086 ft 416 kts 316°
2026-05-05 14:36 42.90301 18.54214 36082 ft 416 kts 316°
2026-05-05 14:37 42.94651 18.49013 36085 ft 416 kts 316°
2026-05-05 14:37 42.99009 18.43796 36082 ft 417 kts 316°
2026-05-05 14:38 43.03370 18.38573 36080 ft 417 kts 316°
2026-05-05 14:38 43.07733 18.33339 36080 ft 417 kts 316°
2026-05-05 14:39 43.12095 18.28086 36078 ft 418 kts 316°
2026-05-05 14:39 43.16458 18.22825 36073 ft 418 kts 316°
2026-05-05 14:40 43.20827 18.17556 36073 ft 418 kts 315°
2026-05-05 14:40 43.25193 18.12270 36070 ft 419 kts 315°
2026-05-05 14:41 43.29561 18.06971 36067 ft 419 kts 315°
2026-05-05 14:41 43.33930 18.01653 36069 ft 420 kts 315°
2026-05-05 14:42 43.38297 17.96329 36069 ft 420 kts 315°
2026-05-05 14:42 43.42679 17.90982 36068 ft 421 kts 315°
2026-05-05 14:43 43.47053 17.85643 36064 ft 421 kts 315°
2026-05-05 14:43 43.51429 17.80284 36065 ft 421 kts 315°
2026-05-05 14:44 43.55802 17.74913 36053 ft 421 kts 315°
2026-05-05 14:44 43.60174 17.69531 36053 ft 421 kts 315°
2026-05-05 14:45 43.64548 17.64140 36046 ft 422 kts 315°
2026-05-05 14:45 43.68210 17.59620 36048 ft 422 kts 315°
2026-05-05 14:46 43.72590 17.54203 36048 ft 422 kts 315°
2026-05-05 14:46 43.76960 17.48781 36047 ft 422 kts 315°
2026-05-05 14:47 43.81333 17.43343 36046 ft 423 kts 315°
2026-05-05 14:47 43.85706 17.37892 36048 ft 423 kts 315°
2026-05-05 14:48 43.90084 17.32438 36047 ft 423 kts 315°
2026-05-05 14:48 43.94460 17.26965 36043 ft 424 kts 315°
2026-05-05 14:49 43.98840 17.21482 36051 ft 424 kts 315°
2026-05-05 14:49 44.03212 17.15986 36043 ft 425 kts 315°
2026-05-05 14:50 44.07598 17.10476 36043 ft 425 kts 315°
2026-05-05 14:50 44.11987 17.04958 36048 ft 425 kts 314°
2026-05-05 14:51 44.16398 16.99383 36045 ft 426 kts 314°
2026-05-05 14:51 44.20777 16.93822 36041 ft 426 kts 314°
2026-05-05 14:52 44.25160 16.88252 36040 ft 427 kts 314°
2026-05-05 14:52 44.29545 16.82671 36035 ft 427 kts 315°
2026-05-05 14:53 44.33916 16.77040 36034 ft 427 kts 314°
2026-05-05 14:53 44.38238 16.71322 36038 ft 428 kts 314°
2026-05-05 14:54 44.42560 16.65582 36037 ft 428 kts 314°
2026-05-05 14:54 44.46888 16.59848 36033 ft 428 kts 314°
2026-05-05 14:55 44.51220 16.54115 36030 ft 429 kts 314°
2026-05-05 14:55 44.55554 16.48372 36029 ft 429 kts 314°
2026-05-05 14:56 44.59913 16.42567 36025 ft 429 kts 314°
2026-05-05 14:56 44.64241 16.36783 36024 ft 430 kts 314°
2026-05-05 14:57 44.68573 16.30994 36031 ft 430 kts 314°
2026-05-05 14:57 44.72902 16.25195 36030 ft 430 kts 314°
2026-05-05 14:58 44.77236 16.19376 36027 ft 430 kts 314°
2026-05-05 14:58 44.81559 16.13557 36024 ft 430 kts 314°
2026-05-05 14:59 44.85883 16.07724 36021 ft 430 kts 313°
2026-05-05 14:59 44.90203 16.01887 36020 ft 430 kts 313°
2026-05-05 15:00 44.93823 15.96985 36019 ft 430 kts 313°
2026-05-05 15:00 44.98868 15.90139 36022 ft 430 kts 313°
2026-05-05 15:01 45.03178 15.84274 36020 ft 430 kts 313°
2026-05-05 15:01 45.07484 15.78403 36015 ft 430 kts 313°
2026-05-05 15:02 45.11787 15.72526 36013 ft 430 kts 313°
2026-05-05 15:02 45.16080 15.66634 36012 ft 430 kts 313°
2026-05-05 15:03 45.20366 15.60744 36006 ft 429 kts 313°
2026-05-05 15:03 45.24667 15.54857 36006 ft 429 kts 313°
2026-05-05 15:04 45.28954 15.48958 36003 ft 429 kts 313°
2026-05-05 15:04 45.33228 15.43040 35996 ft 429 kts 313°
2026-05-05 15:05 45.39633 15.34145 36001 ft 429 kts 313°
2026-05-05 15:06 45.43907 15.28213 36004 ft 429 kts 313°
2026-05-05 15:06 45.48208 15.22224 36002 ft 430 kts 313°
2026-05-05 15:07 45.52481 15.16266 36004 ft 430 kts 313°
2026-05-05 15:07 45.56751 15.10297 36000 ft 430 kts 313°
2026-05-05 15:08 45.61014 15.04309 36003 ft 430 kts 313°
2026-05-05 15:08 45.65282 14.98313 36009 ft 430 kts 313°
2026-05-05 15:09 45.69551 14.92311 36010 ft 430 kts 313°
2026-05-05 15:09 45.73818 14.86290 36011 ft 431 kts 312°
2026-05-05 15:10 45.78075 14.80260 36009 ft 431 kts 312°
2026-05-05 15:10 45.82333 14.74215 36012 ft 431 kts 312°
2026-05-05 15:11 45.86593 14.68164 36013 ft 431 kts 312°
2026-05-05 15:11 45.90881 14.62063 36018 ft 431 kts 312°
2026-05-05 15:12 45.95134 14.55990 36025 ft 431 kts 312°
2026-05-05 15:12 45.99387 14.49899 36032 ft 432 kts 312°
2026-05-05 15:13 46.03638 14.43792 36038 ft 432 kts 312°
2026-05-05 15:13 46.07884 14.37695 36036 ft 432 kts 312°
2026-05-05 15:14 46.12132 14.31572 36039 ft 432 kts 312°
2026-05-05 15:14 46.16310 14.25343 36036 ft 431 kts 310°
2026-05-05 15:15 46.20351 14.18958 36032 ft 431 kts 309°
2026-05-05 15:15 46.24374 14.12532 36029 ft 431 kts 309°
2026-05-05 15:16 46.28421 14.06131 36023 ft 432 kts 309°
2026-05-05 15:16 46.31828 14.00763 36015 ft 432 kts 309°
2026-05-05 15:17 46.35892 13.94351 36011 ft 433 kts 309°
2026-05-05 15:17 46.39961 13.87906 36007 ft 433 kts 309°
2026-05-05 15:18 46.44025 13.81449 36002 ft 434 kts 309°
2026-05-05 15:18 46.48090 13.74978 35996 ft 434 kts 309°
2026-05-05 15:19 46.52149 13.68490 35993 ft 434 kts 309°